• In Belarus
  • List of Countries
  • For 7 days
  • Water Temperature
  • Satellite Maps
  • Weather Map
  • Weather Widgets
  • user-avatar
    Login

    Hourly Weather Banja Luka

    Today, 21 January, Sunday

    Time Temperature Precipitation Wind Pressure Humidity
    00:00 -1°C° 0 mm 3 mps 707 mmHg 78%
    01:00 -1°C° 0 mm 2 mps 707 mmHg 81%
    02:00 +1°C° 0 mm 2 mps 706 mmHg 81%
    03:00 0°C° 0 mm 3 mps 705 mmHg 81%
    04:00 0°C° 0 mm 4 mps 705 mmHg 81%
    05:00 +1°C° 0.1 mm 4 mps 704 mmHg 83%
    06:00 +1°C° 0.1 mm 4 mps 704 mmHg 85%
    07:00 +3°C° 0.1 mm 3 mps 703 mmHg 86%
    08:00 +3°C° 0.9 mm 3 mps 703 mmHg 89%
    09:00 +4°C° 0.9 mm 2 mps 704 mmHg 92%
    10:00 +5°C° 0.9 mm 1 mps 704 mmHg 95%
    11:00 +4°C° 1.4 mm 2 mps 704 mmHg 95%
    12:00 +4°C° 1.4 mm 2 mps 704 mmHg 95%
    13:00 +4°C° 1.4 mm 2 mps 705 mmHg 95%
    14:00 +4°C° 0.5 mm 2 mps 705 mmHg 93%
    15:00 +3°C° 0.5 mm 2 mps 706 mmHg 92%
    16:00 +2°C° 0.5 mm 3 mps 707 mmHg 90%
    17:00 +1°C° 0.1 mm 3 mps 707 mmHg 91%
    18:00 0°C° 0.1 mm 3 mps 708 mmHg 92%
    19:00 -1°C° 0.1 mm 3 mps 709 mmHg 93%
    20:00 -1°C° 0.2 mm 3 mps 710 mmHg 92%
    21:00 -1°C° 0.2 mm 3 mps 710 mmHg 92%
    22:00 -2°C° 0.2 mm 3 mps 711 mmHg 92%
    23:00 -2°C° 0.1 mm 3 mps 711 mmHg 92%

    Tomorrow, 22 January, Monday

    Time Temperature Precipitation Wind Pressure Humidity
    00:00 -2°C° 0.1 mm 3 mps 712 mmHg 92%
    01:00 -4°C° 0.1 mm 3 mps 712 mmHg 92%
    02:00 -4°C° 0 mm 3 mps 712 mmHg 93%
    03:00 -5°C° 0 mm 3 mps 713 mmHg 93%
    04:00 -4°C° 0 mm 2 mps 713 mmHg 93%
    05:00 -4°C° 0 mm 2 mps 713 mmHg 93%
    06:00 -5°C° 0 mm 2 mps 713 mmHg 93%
    07:00 -3°C° 0 mm 1 mps 713 mmHg 93%
    08:00 -2°C° 0 mm 1 mps 713 mmHg 89%
    09:00 -3°C° 0 mm 2 mps 714 mmHg 86%
    10:00 -3°C° 0 mm 2 mps 714 mmHg 82%
    11:00 0°C° 0 mm 1 mps 714 mmHg 77%
    12:00 +1°C° 0 mm 1 mps 714 mmHg 72%
    13:00 +2°C° 0 mm 1 mps 714 mmHg 68%
    14:00 +2°C° 0 mm 1 mps 714 mmHg 70%
    15:00 +1°C° 0 mm 0 mps 714 mmHg 72%
    16:00 0°C° 0 mm 0 mps 713 mmHg 74%
    17:00 -1°C° 0 mm 0 mps 714 mmHg 75%
    18:00 -1°C° 0 mm 1 mps 714 mmHg 76%
    19:00 -1°C° 0 mm 1 mps 714 mmHg 77%
    20:00 -1°C° 0 mm 1 mps 714 mmHg 76%
    21:00 -1°C° 0 mm 1 mps 715 mmHg 75%
    22:00 -1°C° 0 mm 1 mps 715 mmHg 74%
    23:00 -1°C° 0 mm 1 mps 715 mmHg 74%

    Day after tomorrow, 23 January, Tuesday

    Time Temperature Precipitation Wind Pressure Humidity
    00:00 -1°C° 0 mm 1 mps 715 mmHg 73%
    01:00 -1°C° 0 mm 1 mps 715 mmHg 73%
    02:00 -1°C° 0 mm 1 mps 716 mmHg 73%
    03:00 -2°C° 0 mm 0 mps 716 mmHg 74%
    04:00 -2°C° 0 mm 0 mps 716 mmHg 75%
    05:00 -2°C° 0 mm 0 mps 716 mmHg 75%
    06:00 -1°C° 0 mm 1 mps 717 mmHg 76%
    07:00 -1°C° 0 mm 1 mps 717 mmHg 77%
    08:00 +1°C° 0 mm 1 mps 718 mmHg 76%
    09:00 +2°C° 0 mm 1 mps 719 mmHg 76%
    10:00 +4°C° 0 mm 1 mps 720 mmHg 75%
    11:00 +5°C° 0 mm 1 mps 720 mmHg 75%
    12:00 +5°C° 0 mm 1 mps 720 mmHg 76%
    13:00 +5°C° 0 mm 2 mps 720 mmHg 76%
    14:00 +4°C° 0 mm 2 mps 721 mmHg 78%
    15:00 +5°C° 0 mm 1 mps 721 mmHg 81%
    16:00 +4°C° 0 mm 1 mps 721 mmHg 83%
    17:00 +3°C° 0 mm 1 mps 721 mmHg 85%
    18:00 +2°C° 0 mm 1 mps 721 mmHg 88%
    19:00 0°C° 0 mm 1 mps 722 mmHg 90%
    20:00 0°C° 0 mm 1 mps 722 mmHg 89%
    21:00 0°C° 0 mm 1 mps 722 mmHg 89%
    22:00 0°C° 0 mm 1 mps 722 mmHg 89%
    23:00 0°C° 0 mm 1 mps 723 mmHg 88%

    24 January, Wednesday

    Time Temperature Precipitation Wind Pressure Humidity
    00:00 0°C° 0 mm 1 mps 723 mmHg 88%
    01:00 0°C° 0 mm 1 mps 723 mmHg 87%
    02:00 0°C° 0 mm 1 mps 723 mmHg 87%
    03:00 0°C° 0 mm 1 mps 723 mmHg 87%
    04:00 0°C° 0 mm 1 mps 723 mmHg 86%
    05:00 0°C° 0 mm 1 mps 723 mmHg 86%
    06:00 0°C° 0 mm 1 mps 723 mmHg 86%
    07:00 0°C° 0 mm 1 mps 723 mmHg 86%
    08:00 +1°C° 0 mm 1 mps 724 mmHg 83%
    09:00 +3°C° 0 mm 1 mps 724 mmHg 80%
    10:00 +5°C° 0 mm 1 mps 724 mmHg 78%
    11:00 +6°C° 0 mm 1 mps 724 mmHg 77%
    12:00 +6°C° 0 mm 1 mps 724 mmHg 75%
    13:00 +7°C° 0 mm 1 mps 724 mmHg 74%
    14:00 +6°C° 0 mm 1 mps 724 mmHg 77%
    15:00 +6°C° 0 mm 1 mps 723 mmHg 79%
    16:00 +5°C° 0 mm 1 mps 723 mmHg 81%
    17:00 +4°C° 0 mm 1 mps 723 mmHg 82%
    18:00 +3°C° 0 mm 1 mps 723 mmHg 83%
    19:00 +2°C° 0 mm 1 mps 723 mmHg 84%
    20:00 +2°C° 0 mm 1 mps 723 mmHg 82%
    21:00 +1°C° 0 mm 1 mps 723 mmHg 80%
    22:00 +1°C° 0 mm 1 mps 722 mmHg 78%
    23:00 +1°C° 0 mm 1 mps 722 mmHg 76%

    25 January, Thursday

    Time Temperature Precipitation Wind Pressure Humidity
    00:00 +1°C° 0 mm 1 mps 722 mmHg 75%
    01:00 +1°C° 0 mm 1 mps 722 mmHg 74%
    02:00 +1°C° 0 mm 1 mps 721 mmHg 74%
    03:00 +1°C° 0 mm 1 mps 721 mmHg 75%
    04:00 +1°C° 0 mm 1 mps 721 mmHg 75%
    05:00 +1°C° 0 mm 1 mps 721 mmHg 75%
    06:00 +1°C° 0 mm 1 mps 720 mmHg 75%
    07:00 +1°C° 0 mm 1 mps 720 mmHg 75%
    08:00 +3°C° 0 mm 1 mps 720 mmHg 75%
    09:00 +5°C° 0 mm 1 mps 721 mmHg 75%
    10:00 +6°C° 0 mm 1 mps 721 mmHg 74%
    11:00 +7°C° 0 mm 1 mps 720 mmHg 74%
    12:00 +8°C° 0 mm 1 mps 720 mmHg 73%
    13:00 +9°C° 0 mm 1 mps 720 mmHg 73%
    14:00 +8°C° 0 mm 1 mps 719 mmHg 75%
    15:00 +7°C° 0 mm 1 mps 719 mmHg 78%
    16:00 +7°C° 0 mm 1 mps 719 mmHg 81%
    17:00 +6°C° 0 mm 1 mps 718 mmHg 83%
    18:00 +4°C° 0 mm 1 mps 718 mmHg 85%
    19:00 +3°C° 0 mm 1 mps 718 mmHg 87%
    20:00 +3°C° 0 mm 1 mps 718 mmHg 87%
    21:00 +3°C° 0 mm 1 mps 718 mmHg 87%
    22:00 +3°C° 0 mm 1 mps 718 mmHg 88%
    23:00 +3°C° 0 mm 1 mps 718 mmHg 87%

    26 January, Friday

    Time Temperature Precipitation Wind Pressure Humidity
    00:00 +3°C° 0 mm 1 mps 717 mmHg 87%
    01:00 +3°C° 0 mm 1 mps 717 mmHg 87%
    02:00 +2°C° 0 mm 1 mps 717 mmHg 87%
    03:00 +2°C° 0 mm 1 mps 717 mmHg 86%
    04:00 +2°C° 0 mm 1 mps 716 mmHg 86%
    05:00 +2°C° 0 mm 1 mps 716 mmHg 86%
    06:00 +2°C° 0 mm 1 mps 716 mmHg 86%
    07:00 +2°C° 0 mm 1 mps 716 mmHg 86%
    08:00 +4°C° 0 mm 1 mps 716 mmHg 84%
    09:00 +5°C° 0 mm 1 mps 717 mmHg 82%
    10:00 +7°C° 0 mm 1 mps 717 mmHg 81%
    11:00 +8°C° 0 mm 1 mps 717 mmHg 79%
    12:00 +9°C° 0 mm 1 mps 717 mmHg 78%
    13:00 +10°C° 0 mm 1 mps 717 mmHg 76%
    14:00 +9°C° 0 mm 1 mps 717 mmHg 79%
    15:00 +8°C° 0 mm 1 mps 717 mmHg 82%
    16:00 +7°C° 0 mm 1 mps 717 mmHg 85%
    17:00 +6°C° 0 mm 2 mps 717 mmHg 86%
    18:00 +5°C° 0 mm 2 mps 717 mmHg 88%
    19:00 +4°C° 0 mm 2 mps 717 mmHg 89%
    20:00 +4°C° 0 mm 2 mps 717 mmHg 90%
    21:00 +3°C° 0 mm 2 mps 718 mmHg 90%
    22:00 +3°C° 0 mm 2 mps 718 mmHg 90%
    23:00 +3°C° 0 mm 2 mps 718 mmHg 90%
    Show more